GW5654 Weather Reports


time (UTC)temp
F
wind
direction
speed
knots
gust
knots
rain 1hr
in
rain 24hr
in
rain mn
in
humidity
%
barometer
mb
20260504081610 47 0 0.0 1.7 0.00 0.00 0.00 60 1009.4
20260504080106 47 210 0.0 1.7 0.00 0.00 0.00 60 1009.5
20260504044557 47 150 0.9 2.6 0.00 0.00 0.00 58 1009.8
20260504043113 47 163 0.0 3.5 0.00 0.00 0.00 56 1010.0
20260504041558 48 180 0.9 3.5 0.00 0.00 0.00 54 1010.2
20260504040058 48 261 0.9 3.5 0.00 0.00 0.00 53 1010.2
20260504034556 48 227 0.9 2.6 0.00 0.00 0.00 53 1010.2
20260504033104 48 252 0.0 1.7 0.00 0.00 0.00 54 1010.0
20260504031559 48 0 0.0 1.7 0.00 0.00 0.00 52 1009.9
20260504030115 49 250 0.0 1.7 0.00 0.00 0.00 51 1009.9
20260504024555 49 0 0.0 1.7 0.00 0.00 0.00 50 1009.8
20260504023058 50 337 1.7 6.1 0.00 0.00 0.00 48 1009.9
20260504021559 50 282 0.9 2.6 0.00 0.00 0.00 45 1009.8
20260504020105 50 293 1.7 6.1 0.00 0.00 0.00 43 1009.9
20260504014604 51 281 0.9 2.6 0.00 0.00 0.00 40 1010.0
20260504013058 51 290 2.6 7.0 0.00 0.00 0.00 39 1009.9
20260504011556 51 278 3.5 7.0 0.00 0.00 0.00 38 1009.9
20260504010101 52 257 2.6 7.8 0.00 0.00 0.00 36 1009.7
20260504004556 52 326 2.6 7.8 0.00 0.00 0.00 34 1009.5
20260504003104 53 319 3.5 11.3 0.00 0.00 0.00 34 1009.3
20260504001600 53 309 7.0 12.2 0.00 0.00 0.00 33 1009.1
20260504000103 54 215 4.3 13.9 0.00 0.00 0.00 32 1008.9
20260503234558 54 320 4.3 9.6 0.00 0.00 0.00 32 1008.8
20260503233102 55 301 5.2 12.2 0.00 0.00 0.00 31 1008.4
20260503231556 55 257 9.6 16.5 0.00 0.00 0.00 30 1008.3
20260503230112 56 280 7.8 16.5 0.00 0.00 0.00 29 1008.2
20260503224556 56 313 8.7 17.4 0.00 0.00 0.00 28 1007.9
20260503223110 57 175 7.0 15.6 0.00 0.00 0.00 25 1007.8
20260503221555 57 246 7.0 16.5 0.00 0.00 0.00 24 1007.6
20260503220055 57 291 9.6 13.0 0.00 0.00 0.00 21 1007.6
20260503214559 57 254 4.3 12.2 0.00 0.00 0.00 24 1007.6
20260503213057 57 294 7.8 15.6 0.00 0.00 0.00 24 1007.6
20260503211557 57 289 5.2 15.6 0.00 0.00 0.00 25 1007.7
20260503210054 56 266 7.8 14.8 0.00 0.00 0.00 26 1007.6
20260503204557 56 301 3.5 14.8 0.00 0.00 0.00 28 1007.8
20260503203054 54 12 7.0 12.2 0.00 0.00 0.00 30 1008.0
20260503201556 55 294 4.3 16.5 0.00 0.00 0.00 30 1008.2
20260503200058 54 242 6.1 12.2 0.00 0.00 0.00 31 1008.4
20260503194616 54 248 5.2 15.6 0.00 0.00 0.00 32 1008.5
20260503193056 53 328 5.2 13.0 0.00 0.00 0.00 31 1008.8
20260503191601 52 322 7.0 13.9 0.00 0.00 0.00 32 1009.0
20260503190057 52 273 3.5 12.2 0.00 0.00 0.00 33 1009.2
20260503184557 51 352 7.8 14.8 0.00 0.00 0.00 34 1009.4
20260503183101 51 302 5.2 13.0 0.00 0.00 0.00 34 1009.4
20260503181607 51 352 6.1 13.9 0.00 0.00 0.00 34 1009.5
20260503180056 50 5 4.3 13.0 0.00 0.00 0.00 34 1009.5
20260503174606 50 247 6.1 14.8 0.00 0.00 0.00 34 1009.7
20260503173058 50 290 5.2 11.3 0.00 0.00 0.00 34 1009.8
20260503171557 50 344 4.3 14.8 0.00 0.00 0.00 34 1009.8
20260503170107 50 304 7.0 11.3 0.00 0.00 0.00 35 1009.8
20260503120117 44 344 2.6 7.8 0.00 0.00 0.00 60 1010.6